TimeMST,TemperatureF,Dew PointF,Humidity,Sea Level PressureIn,VisibilityMPH,Wind Direction,Wind SpeedMPH,Gust SpeedMPH,PrecipitationIn,Events,Conditions,WindDirDegrees,DateUTC
12:53 AM,24.1,18.0,77,30.18,10.0,Calm,Calm,-,N/A,,Clear,0,2012-11-30 07:53:00
1:53 AM,23.0,17.1,78,30.18,10.0,ENE,3.5,-,N/A,,Clear,60,2012-11-30 08:53:00
2:53 AM,24.1,19.0,81,30.18,10.0,East,4.6,-,N/A,,Clear,80,2012-11-30 09:53:00
3:53 AM,23.0,18.0,81,30.17,10.0,ENE,3.5,-,N/A,,Clear,60,2012-11-30 10:53:00
4:53 AM,23.0,19.0,85,30.17,10.0,ENE,3.5,-,N/A,,Clear,70,2012-11-30 11:53:00
5:53 AM,21.9,17.1,82,30.23,10.0,Calm,Calm,-,N/A,,Clear,0,2012-11-30 12:53:00
6:53 AM,23.0,18.0,81,30.25,10.0,Calm,Calm,-,N/A,,Clear,0,2012-11-30 13:53:00
7:53 AM,23.0,18.0,81,30.26,10.0,ENE,4.6,-,N/A,,Clear,70,2012-11-30 14:53:00
8:53 AM,33.1,23.0,66,30.25,10.0,Calm,Calm,-,N/A,,Clear,0,2012-11-30 15:53:00
9:53 AM,45.0,28.0,52,30.21,10.0,Calm,Calm,-,N/A,,Clear,0,2012-11-30 16:53:00
10:53 AM,52.0,28.9,41,30.17,10.0,Calm,Calm,-,N/A,,Clear,0,2012-11-30 17:53:00
11:53 AM,55.0,27.0,34,30.14,10.0,SW,10.4,-,N/A,,Clear,230,2012-11-30 18:53:00
12:53 PM,55.0,25.0,31,30.11,10.0,SW,11.5,-,N/A,,Clear,220,2012-11-30 19:53:00
1:53 PM,57.0,23.0,27,30.09,10.0,SW,16.1,-,N/A,,Clear,220,2012-11-30 20:53:00
2:53 PM,55.9,24.1,29,30.09,10.0,SW,10.4,-,N/A,,Clear,220,2012-11-30 21:53:00
3:53 PM,54.0,24.1,31,30.09,10.0,SSW,10.4,-,N/A,,Clear,210,2012-11-30 22:53:00
4:53 PM,46.9,24.1,41,30.13,10.0,South,3.5,-,N/A,,Clear,190,2012-11-30 23:53:00
5:53 PM,41.0,21.9,47,30.17,9.0,East,6.9,-,N/A,,Clear,80,2012-12-01 00:53:00
6:53 PM,37.9,19.9,48,30.18,10.0,NE,6.9,-,N/A,,Clear,50,2012-12-01 01:53:00
7:53 PM,36.0,19.0,50,30.18,10.0,East,3.5,-,N/A,,Clear,80,2012-12-01 02:53:00
8:53 PM,35.1,19.9,54,30.15,10.0,North,3.5,-,N/A,,Partly Cloudy,10,2012-12-01 03:53:00
9:53 PM,36.0,21.0,55,30.10,10.0,NE,4.6,-,N/A,,Clear,50,2012-12-01 04:53:00
10:53 PM,36.0,21.9,57,30.07,10.0,South,5.8,-,N/A,,Overcast,180,2012-12-01 05:53:00
11:53 PM,34.0,21.9,61,30.06,10.0,Calm,Calm,-,N/A,,Clear,0,2012-12-01 06:53:00